#timestamp,LO_Frequency,Hit,StdDev 
1514037615.3,286046996.8,N
1514037635.1,286046997.4,N
1514037655.8,286046998.2,N
1514037675.7,286046996.9,N
1514037695.5,286046995.6,N
1514037715.3,286046991.8,Y
1514037735.2,286046997.6,P
1514037755.0,286046997.5,P
1514037755.9,286046997.5,P
1514037775.7,286046998.8,N
1514037795.6,286046996.5,Y
1514037815.4,286047003.7,P
1514037835.2,286047005.2,N
1514037855.1,286047008.7,N
1514037856.0,286047008.7,N
1514037875.8,286047008.2,N
1514037895.6,286047004.6,N
1514037915.5,286047006.0,N
1514037935.3,286047002.5,N
1514037955.1,286047005.4,N
1514037975.9,286047008.1,N
1514037995.7,286047012.2,Y
1514038015.5,286047008.4,P
1514038035.4,286047010.8,P
1514038055.2,286047017.2,P
1514038075.0,286047019.9,Y
1514038075.9,286047019.9,P
1514038095.8,286047010.8,N
1514038115.6,286047004.9,N
1514038135.4,286047004.1,N
1514038155.3,286046998.6,N
1514038175.1,286046998.9,N
1514038176.0,286046998.9,N
1514038195.8,286047000.8,N
1514038215.7,286047004.2,N
1514038235.5,286047001.2,N
1514038255.3,286047005.1,N
1514038275.2,286047004.9,N
1514038295.9,286047004.5,N
1514038315.7,286047010.6,N
1514038335.5,286047007.9,N
1514038355.4,286047007.6,N
1514038375.2,286047007.2,N
1514038395.0,286047011.3,N
1514038395.9,286047011.3,N
1514038415.8,286047012.0,N
1514038435.6,286047016.8,Y
1514038455.4,286047011.9,P
1514038475.3,286047015.5,P
1514038495.1,286047011.0,N
1514038515.8,286047008.3,N
1514038535.7,286047010.8,Y
1514038555.5,286046999.8,P
1514038575.3,286047003.5,N
1514038595.2,286047009.1,N
1514038615.9,286047003.8,N
1514038635.7,286047006.4,N
1514038655.6,286047008.6,N
1514038675.4,286047010.5,N
1514038695.2,286047008.7,N
1514038715.1,286047010.8,Y
1514038716.0,286047010.8,P
1514038735.8,286047002.2,N
1514038755.6,286047000.4,N
1514038775.5,286047005.0,N
1514038795.3,286047005.2,N
1514038815.1,286047002.4,N
1514038835.8,286046999.8,N
1514038855.7,286047001.3,N
1514038875.5,286047002.2,N
1514038895.3,286047001.7,N
1514038915.2,286047002.1,N
1514038935.0,286047002.5,N
1514038935.9,286047002.5,N
1514038955.7,286047003.5,N
1514038975.6,286047002.6,N
1514038995.4,286047004.2,N
1514039015.2,286047000.8,N
1514039035.1,286047002.8,N
1514039036.0,286047002.8,N
1514039055.8,286046999.2,N
1514039075.6,286046998.7,N
1514039095.5,286047000.8,N
1514039115.3,286047002.4,N
1514039135.1,286047004.2,N
1514039155.8,286047005.7,N
1514039175.7,286047001.9,N
1514039195.5,286047000.6,N
1514039215.3,286046997.1,N
1514039235.2,286046998.7,N
1514039255.9,286046999.0,N
1514039275.7,286046999.6,N
1514039295.6,286046999.6,N
1514039315.4,286046996.9,N
1514039335.2,286046997.0,N
1514039355.1,286046995.5,N
1514039356.0,286046995.5,N
1514039375.8,286046998.8,N
1514039395.6,286047000.5,N
1514039415.5,286046998.5,N
1514039435.3,286047002.1,N
1514039455.1,286046999.8,N
1514039475.8,286046995.5,N
1514039495.7,286046997.9,N
1514039515.5,286046992.1,N
1514039535.3,286046991.2,N
1514039555.2,286046994.8,N
1514039575.0,286046994.5,N
1514039575.9,286046994.5,N
1514039595.7,286046995.4,N
1514039615.6,286046996.1,N
1514039635.4,286046996.1,N
1514039655.2,286046996.3,N
1514039675.1,286046993.8,N
1514039676.0,286046993.8,N
1514039695.8,286046996.3,N
1514039715.6,286046997.9,N
1514039735.5,286046988.7,Y
1514039755.3,286046987.5,P
1514039775.1,286046986.2,N
1514039795.9,286046985.3,P
1514039815.7,286046986.5,N
1514039835.5,286046988.4,N
1514039855.4,286046990.1,N
1514039875.2,286046990.8,N
1514039895.0,286046989.6,Y
1514039895.9,286046989.6,P
1514039915.8,286046998.7,P
1514039935.6,286047002.7,N
1514039955.4,286047001.6,N
1514039975.3,286047005.6,N
1514039995.1,286047003.8,N
1514039996.0,286047003.8,N
1514040015.8,286047002.4,N
1514040035.6,286046998.3,N
1514040055.5,286047002.7,N
1514040075.3,286047004.0,N
1514040095.1,286047001.7,N
1514040115.9,286046998.2,N
1514040135.7,286046997.3,N
1514040155.5,286046996.0,N
1514040175.4,286046996.8,N
1514040195.2,286046997.0,N
1514040215.0,286046998.4,N
1514040215.9,286046998.4,N
1514040235.8,286047002.0,N
1514040255.6,286046999.9,N
1514040275.4,286047000.5,N
1514040295.3,286047000.3,N
1514040315.1,286047003.2,N
1514040316.0,286047003.2,N
1514040335.8,286047005.1,N
1514040355.6,286047002.2,N
1514040375.5,286047000.3,N
1514040395.3,286047005.3,N
1514040415.1,286047003.0,N
1514040435.9,286047007.5,N
1514040455.7,286047006.0,N
1514040475.5,286047004.5,N
1514040495.4,286047009.7,Y
1514040515.2,286047013.5,P
1514040535.0,286047012.0,N
1514040535.9,286047012.0,N
1514040555.8,286047007.4,N
1514040575.6,286047004.5,N
1514040595.4,286047010.6,N
1514040615.3,286047013.0,Y
1514040635.1,286047001.5,P
1514040636.0,286047001.5,N
1514040655.8,286047001.8,N
1514040675.7,286047003.2,N
1514040695.5,286047002.2,N
1514040715.3,286047003.3,N
1514040735.2,286047002.1,N
1514040755.9,286047000.2,N
1514040775.7,286046999.9,N
1514040795.6,286046999.6,N
1514040815.4,286046999.0,N
1514040835.2,286046997.6,N
1514040855.0,286046999.7,N
1514040855.9,286046999.7,N
1514040875.8,286046997.8,N
1514040895.6,286046994.3,N
1514040915.4,286046996.0,N
1514040935.3,286046994.6,N
1514040955.1,286046996.2,N
1514040975.8,286046997.4,N
1514040995.7,286046997.4,N
1514041015.5,286046997.2,N
1514041035.3,286046994.9,N
1514041055.2,286046993.4,N
1514041075.9,286046992.1,N
1514041095.7,286046993.8,N
1514041115.6,286046996.6,N
1514041135.4,286046997.0,N
1514041155.2,286046995.3,N
1514041175.0,286046995.3,N
1514041176.0,286046995.3,N
1514041195.8,286046998.7,N
